Weather Roundup
Issued by NWS

Home | Current Version | Previous Version | Graphics & Text | Print | Product List | Glossary Off
Versions: 1 2 3 4 5 6 7 8 9 10 11 12 13 14 15 16 17 18 19 20 21 22 23 24 25 26 27 28 29 30 31 32 33 34 35 36 37 38 39 40 41 42 43 44 45 46 47 48 49 50

000
NZUS93 KARX 012359
HRRWXR

CURRENT HOURLY OBSERVATIONS ACROSS
MUCH OF THE UPPER MISSISSIPPI VALLEY
NATIONAL WEATHER SERVICE LA CROSSE WI
600 PM CST SUN MAR 01 2015


...SOUTHEAST MINNESOTA...


CITY           SKY/WX    TMP DP  RH WIND       PRES   REMARKS
ROCHESTER      CLEAR     15   8  73 SW8       30.25S WCI   4
ROCHESTER/MAYO CLOUDY    24  12  58 W9        30.25S WCI  15
WINONA         CLEAR     25  10  54 W8        30.28S WCI  16
AUSTIN         MOCLDY    25  12  58 W7        30.27R WCI  17
ALBERT LEA     CLOUDY    25  14  63 W7        30.27R WCI  17
DODGE CENTER   MOCLDY    21  12  68 W8        30.24R WCI  12
PRESTON        CLEAR     18   9  70 W8        30.27R WCI   7
OWATONNA       CLOUDY    27  14  59 W7        30.25R WCI  19
FARIBAULT      CLOUDY    27  14  59 W8        30.25S WCI  18
$$

...ELSEWHERE IN MINNESOTA...


CITY           SKY/WX    TMP DP  RH WIND       PRES   REMARKS
MINNEAPOLIS    MOCLDY    27  13  55 W15       30.24R WCI  15
INTNL FALLS    CLOUDY    16   7  67 W10       30.12R WCI   4
DULUTH         NOT AVBL
RED WING       PTCLDY    25  10  54 W8        30.24S WCI  16
REDWOOD FALLS  PTCLDY    26  16  65 NW18      30.29R WCI  13
MANKATO        MOCLDY    28  12  50 NW15      30.27R WCI  17
FAIRMONT       MOCLDY    28  12  50 W16       30.28R WCI  17
$$

...SOUTHWEST WISCONSIN...


CITY           SKY/WX    TMP DP  RH WIND       PRES   REMARKS
LA CROSSE      CLEAR     23   8  52 W10       30.28R WCI  12
PRAIRIE DU CHI CLEAR     22   8  53 W9G17     30.31R WCI  12
BOSCOBEL       FAIR      22   6  50 W7        30.29R WCI  13
LONE ROCK      NOT AVBL
PLATTEVILLE    CLEAR     23  13  66 W15       30.27R WCI  10
FORT MC COY    CLEAR     22   7  51 W9        30.25R WCI  12
VIROQUA        FAIR      20   7  56 W12       30.23R WCI   8
WIS DELLS      NOT AVBL
$$

...ELSEWHERE IN WISCONSIN...


CITY           SKY/WX    TMP DP  RH WIND       PRES   REMARKS
MILWAUKEE      PTCLDY    25  13  60 SW9G20    30.22R WCI  15
MADISON        PTCLDY    25  14  63 SW8       30.22R WCI  16
GREEN BAY      MOCLDY    23  14  68 W16       30.16R WCI  10
EAU CLAIRE     NOT AVBL
BLACK RVR FLS  FAIR      22   5  47 W14       30.24R WCI   9
MEDFORD        CLEAR     20   5  52 W14       30.11S WCI   6
WAUSAU         CLEAR     20   7  57 W14       30.12S WCI   7
WIS RAPIDS     CLEAR     23   4  44 W14       30.19R WCI  11
MARSHFIELD     CLEAR     20   6  55 W15       30.16R WCI   6
RICE LAKE      PTCLDY    22   9  57 W10       30.20R WCI  11
$$

...NORTHEAST IOWA...


CITY           SKY/WX    TMP DP  RH WIND       PRES   REMARKS
DECORAH        CLEAR     21   9  58 W8        30.28R WCI  12
MASON CITY     CLEAR     22  13  68 W10       30.31R WCI  11
CHARLES CITY   CLEAR     21  12  68 W8        30.30F WCI  12
OELWEIN        CLEAR     19  10  68 W9        30.32S WCI   9
$$

...ELSEWHERE IN IOWA...


CITY           SKY/WX    TMP DP  RH WIND       PRES   REMARKS
DES MOINES     PTCLDY    30  15  53 NW12      30.38R WCI  20
IOWA CITY      PTCLDY    26  17  68 N10       30.37R WCI  16
FORT DODGE     PTCLDY    27  16  63 W6        30.35R WCI  20
$$

...NORTHERN ILLINOIS...


CITY           SKY/WX    TMP DP  RH WIND       PRES   REMARKS
CHICAGO-OHARE  PTCLDY    21  14  74 W12       30.26S WCI   9
CHICAGO-MIDWAY MOCLDY    25  16  68 W14       30.28S WCI  13
MOLINE         CLEAR     25  15  66 W12       30.33R WCI  14
ROCKFORD       PTCLDY    23  15  71 W9        30.28S WCI  13
PEORIA         PTCLDY    25  15  66 W5        30.35R WCI  19
$$

NOTE: "FAIR" INDICATES FEW OR NO CLOUDS BELOW 12,000 FEET WITH NO
SIGNIFICANT WEATHER AND/OR OBSTRUCTIONS TO VISIBILITY. WIND
SPEEDS ARE IN MILES-PER-HOUR.



USA.gov is the U.S. government's official web portal to all federal, state and local government web resources and services.